星链-35915(STARLINK-35915)

导读 | 豆包AI

STARLINK-35915是美国SpaceX公司星链(Starlink)星座中的一颗卫星,于2025年11月19日发射。星链项目旨在低地球轨道搭建全球卫星互联网星座,为基础设施匮乏地区提供高速低延迟宽带服务,STARLINK-35915属于星链升级后的型号,可提供更大带宽,助力星链网络的扩容与服务覆盖提升。

基本信息
目录编号:
66521
目录名称:
STARLINK-35915
国际标识:
2025-265F
轨道中心:
EARTH
卫星名称:
星链-35915
卫星全名:
星链-35915(STARLINK-35915)
卫星状态:
在轨 (已飞行115 天)
发射日期:
2025-11-19 UTC
国别 :
美国 (US)
星等 :
--
轨道信息
数据来源 国际轨道数据
星历时间: 2026-03-13T21:16:42+0800
17小时前
查看轨道信息
半长轴: 6861.096km
偏心率: 0.0002023
轨道倾角: 43.004°
近地点辐角 275.564°
升交点赤经 256.181°
平近点角 84.498°
近地点: 481.571km
远地点: 484.347km
周期: 94.265分钟
每日圈数: 15.276103
详细信息
固有亮度:
5
最大亮度:
2.5
卫星平台:
Starlink V1.0
覆盖范围:
全球
运营商:
太空探索技术公司
运营商所在国:
美国
制造商(研发单位):
太空探索技术公司
制造商所在国:
美国
使用方式:
暂无
卫星简介
Starlink 计划是 SpaceX 推出的全球卫星互联网项目,通过发射低轨道卫星,为全球尤其是偏远地区提供高速、低延迟的互联网服务。自 2019 年起,Starlink 已部署数千颗卫星,旨在缩小全球数字鸿沟,推动互联网普及。该项目还为军事、航空等行业提供通信支持,带来广泛经济效益。
2D轨道图
3D轨道图
轨道高度分析图
轨道倾角分析图
轨道综合分析图
查看轨道综合分析图